Home > Weather > Rankweil > Past weeks

Flag for Austria Past Weather in Rankweil, Vorarlberg, Austria — Yesterday and Last 2 Weeks

Now
62 °F

Mild.


Feels Like: 62 °F
Forecast: 55 / 69 °F
Wind: 3 mph from South

Location: Feldkirch

Current Time: May 31, 2016 at 8:04:36 PM

Latest Report: May 31, 2016 at 7:00 PM


Visibility: N/A

Pressure: 29.85 "Hg

Humidity: 76%

Dew Point: 54 °F

Location of RankweilLocation

Past Weather in Rankweil — Graph

°F

Rankweil Temperature Yesterday

Maximum temperature yesterday: 67 °F (at 3:00 PM)
Minimum temperature yesterday: 56 °F (at 4:00 AM)
Average temperature yesterday: 59 °F

High & Low Weather Summary for the Past Weeks

 TemperatureHumidityPressure
High84 °F (May 22, 1:00 PM)98% (May 31, 5:00 AM)30.20 "Hg (May 31, 5:00 AM)
Low41 °F (May 25, 6:00 AM)20% (May 22, 2:00 PM)29.65 "Hg (May 29, 1:00 PM)
Average59 °F72%29.93 "Hg
* Reported May 16 6:00 PM — May 31 6:00 PM, Rankweil, Weather by CustomWeather, © 2016

Note: Actual official high and low records may vary slightly from our data, if they occured in-between our weather recording intervals... More about our weather records

Advertising

Rankweil Weather History for the Previous 24 Hours

Scroll right to see more
 ConditionsComfort  
Time TempWeatherWind HumidityBarometerVisibility
6:00 PM
Tue, May 31
63 °FMild.2 mph73%29.84 "HgN/A
5:00 PM65 °FMild.1 mph68%29.83 "HgN/A
3:00 PM66 °FMild.3 mph63%29.82 "HgN/A
2:00 PM66 °FMild.2 mph63%29.83 "HgN/A
1:00 PM65 °FMild.3 mph64%29.84 "HgN/A
12:00 PM67 °FMild.3 mph64%29.83 "HgN/A
11:00 AM66 °FPartly sunny.2 mph70%29.83 "Hg6 mi
10:00 AM64 °FMild.1 mph75%29.85 "HgN/A
6:00 AM49 °FCool.No wind98%29.87 "HgN/A
5:00 AM50 °FCool.No wind98%29.86 "HgN/A
4:00 AM50 °FCool.No wind97%29.84 "HgN/A
3:00 AM51 °FCool.No wind97%29.84 "HgN/A
2:00 AM53 °FCool.No wind96%29.83 "HgN/A
1:00 AM55 °FCool.1 mph95%29.83 "HgN/A
12:00 AM56 °FCool.1 mph92%29.84 "HgN/A
11:00 PM
Mon, May 30
58 °FCool.1 mph88%29.83 "HgN/A
10:00 PM58 °FCool.1 mph93%29.83 "HgN/A
9:00 PM59 °FCool.2 mph85%29.80 "HgN/A
8:00 PM61 °FCool.2 mph76%29.79 "HgN/A
Weather by CustomWeather, © 2016

See weather overviewHow to use our weather pages